Weather History for Walhalla, ND

Change the Weather History Date:

Saturday, January 19, 2013

  Actual Average (KGAF) Record (KGAF)
Temperature  
Mean Temperature 2 °F -  
Max Temperature 14 °F 16 °F 38 °F (1968)
Min Temperature -9 °F -3 °F -32 °F (1970)
Degree Days  
Heating Degree Days 62    
Moisture  
Dew Point -2 °F    
Average Humidity 83    
Maximum Humidity 100    
Minimum Humidity 65    
Precipitation  
Precipitation 0.08 in - - ()
Sea Level Pressure  
Sea Level Pressure 30.03 in    
Wind  
Wind Speed 11 mph (NW)    
Max Wind Speed 30 mph    
Max Gust Speed 39 mph    
Visibility 7 miles    
Events Snow    
Averages and records for this station are not official NWS values.
T = Trace of Precipitation, MM = Missing Value Source: NWS Daily Summary

Daily Weather History Graph

Daily Weather History Graph

Search for Another Location

Airport:

Trip Planner

Search our weather history database for the weather conditions in past years. The results will help you decide how hot, cold, wet, or windy it might be!

Date:

Astronomy

Jan. 19, 2013 Rise Set
Actual Time 8:16 AM CST 5:08 PM CST
Civil Twilight 7:41 AM CST 5:44 PM CST
Nautical Twilight 7:02 AM CST 6:23 PM CST
Astronomical Twilight 6:24 AM CST 7:01 PM CST
Moon 11:41 AM CST (1/19) 1:44 AM CST (1/19)
Length of Visible Light 10h 03m
Length of Day
8h 52m
First Quarter, 57% of the Moon is Illuminated
Jan 19
First Quarter
Jan 26
Full
Feb 3
Last Quarter
Feb 10
New
Feb 17
First Quarter

Hourly Weather History & Observations

Time (CST) Temp. Windchill Dew Point Humidity Pressure Visibility Wind Dir Wind Speed Gust Speed Precip Events Conditions
12:15 AM 12.2 °F 6.1 °F 12.2 °F 100% 29.67 in 1.2 mi SE 3.5 mph - 0.06 in Snow Light Snow
12:35 AM 12.2 °F 2.9 °F 12.2 °F 100% 29.65 in 5.0 mi SE 5.8 mph - 0.06 in Snow Light Snow
12:55 AM 12.2 °F 2.9 °F 12.2 °F 100% 29.64 in 10.0 mi SE 5.8 mph - 0.06 in   Overcast
1:15 AM 12.2 °F 4.3 °F 12.2 °F 100% 29.63 in 10.0 mi SSE 4.6 mph - N/A   Overcast
1:35 AM 14.0 °F 5.1 °F 12.2 °F 93% 29.62 in 10.0 mi SSE 5.8 mph - N/A   Overcast
1:55 AM 14.0 °F 8.2 °F 14.0 °F 100% 29.63 in 10.0 mi South 3.5 mph - N/A   Overcast
2:15 AM 14.0 °F - 12.2 °F 93% 29.63 in 10.0 mi Calm Calm - N/A   Unknown
2:35 AM 10.4 °F - 10.4 °F 100% 29.62 in 10.0 mi Calm Calm - N/A   Scattered Clouds
2:55 AM 10.4 °F 4.0 °F 10.4 °F 100% 29.63 in 10.0 mi North 3.5 mph - N/A   Partly Cloudy
3:15 AM 10.4 °F 4.0 °F 10.4 °F 100% 29.64 in 10.0 mi North 3.5 mph - N/A   Mostly Cloudy
3:35 AM 10.4 °F 4.0 °F 10.4 °F 100% 29.64 in 10.0 mi North 3.5 mph - N/A   Overcast
3:55 AM 12.2 °F 4.3 °F 12.2 °F 100% 29.64 in 10.0 mi NNW 4.6 mph - N/A   Overcast
4:15 AM 14.0 °F 3.9 °F 14.0 °F 100% 29.65 in 10.0 mi NW 6.9 mph - N/A   Overcast
4:35 AM 14.0 °F -0.8 °F 14.0 °F 100% 29.67 in 10.0 mi NNW 13.8 mph 17.3 mph N/A   Overcast
4:55 AM 12.2 °F -4.3 °F 12.2 °F 100% 29.69 in 10.0 mi NNW 16.1 mph 20.7 mph N/A Snow Light Snow
5:15 AM 10.4 °F -7.2 °F 10.4 °F 100% 29.70 in 5.0 mi NNW 17.3 mph 24.2 mph N/A Snow Light Snow
5:35 AM 10.4 °F -7.2 °F 8.6 °F 92% 29.72 in 3.0 mi NNW 17.3 mph 25.3 mph 0.01 in Snow Light Snow
6:35 AM 6.8 °F -12.9 °F 5.0 °F 92% 29.78 in 7.0 mi NNW 19.6 mph 28.8 mph N/A Snow Light Snow
6:55 AM 6.8 °F -12.4 °F 3.2 °F 85% 29.78 in 6.0 mi NNW 18.4 mph 29.9 mph N/A   Overcast
7:15 AM 6.8 °F -11.8 °F 1.4 °F 79% 29.80 in 10.0 mi NW 17.3 mph 26.5 mph N/A   Overcast
7:55 AM 6.8 °F -13.4 °F -0.4 °F 72% 29.84 in 9.0 mi NNW 20.7 mph 29.9 mph N/A   Overcast
8:35 AM 5.0 °F -17.5 °F -0.4 °F 78% 29.85 in 5.0 mi NNW 25.3 mph 38.0 mph N/A Snow Light Snow
9:55 AM 1.4 °F -21.4 °F -2.2 °F 85% 29.95 in 1.2 mi NW 23.0 mph 31.1 mph N/A Snow Light Snow
10:15 AM 1.4 °F -19.9 °F -2.2 °F 85% 29.97 in 0.8 mi NNW 19.6 mph 34.5 mph N/A Snow Light Snow
10:35 AM 1.4 °F -20.5 °F -2.2 °F 85% 29.98 in 0.8 mi NNW 20.7 mph 32.2 mph N/A Snow Light Snow
11:15 AM -0.4 °F -23.8 °F -4.0 °F 85% 30.02 in 0.8 mi NNW 23.0 mph 36.8 mph N/A   Overcast
11:35 AM -0.4 °F -24.3 °F -4.0 °F 85% 30.03 in 1.0 mi NNW 24.2 mph 33.4 mph 0.01 in Snow Light Snow
11:55 AM -0.4 °F -24.3 °F -4.0 °F 85% 30.04 in 1.2 mi NNW 24.2 mph 34.5 mph 0.01 in   Scattered Clouds
12:15 PM -0.4 °F -23.8 °F -4.0 °F 85% 30.06 in 1.2 mi NNW 23.0 mph 36.8 mph N/A   Mostly Cloudy
12:35 PM -0.4 °F -24.3 °F -4.0 °F 85% 30.06 in 1.5 mi NNW 24.2 mph 36.8 mph N/A   Scattered Clouds
12:55 PM -0.4 °F -24.7 °F -4.0 °F 85% 30.09 in 1.2 mi NNW 25.3 mph 34.5 mph N/A   Scattered Clouds
1:15 PM -0.4 °F -23.8 °F -4.0 °F 85% 30.10 in 1.2 mi NNW 23.0 mph 34.5 mph N/A Snow Light Snow
1:35 PM -0.4 °F -23.8 °F -4.0 °F 85% 30.11 in 2.0 mi NNW 23.0 mph 33.4 mph N/A   Mostly Cloudy
1:55 PM -0.4 °F -22.8 °F -4.0 °F 85% 30.12 in 1.2 mi NNW 20.7 mph 39.1 mph N/A Snow Light Snow
2:15 PM -0.4 °F -26.4 °F -4.0 °F 85% 30.13 in 1.8 mi NNW 29.9 mph 38.0 mph N/A   Haze
2:35 PM -0.4 °F -21.7 °F -4.0 °F 85% 30.15 in 4.0 mi NNW 18.4 mph 32.2 mph N/A   Haze
2:55 PM -0.4 °F -23.8 °F -4.0 °F 85% 30.18 in 5.0 mi NNW 23.0 mph 31.1 mph N/A   Haze
3:15 PM -0.4 °F -22.8 °F -4.0 °F 85% 30.20 in 8.0 mi NNW 20.7 mph 27.6 mph N/A   Mostly Cloudy
3:35 PM -0.4 °F -23.8 °F -5.8 °F 78% 30.22 in 4.0 mi NW 23.0 mph 31.1 mph N/A   Haze
3:55 PM -0.4 °F -21.7 °F -7.6 °F 72% 30.24 in 9.0 mi NNW 18.4 mph 28.8 mph N/A   Overcast
4:15 PM -0.4 °F -21.2 °F -7.6 °F 72% 30.26 in 10.0 mi NW 17.3 mph 24.2 mph N/A   Overcast
4:35 PM -2.2 °F -22.9 °F -9.4 °F 71% 30.26 in 10.0 mi NW 16.1 mph 24.2 mph N/A   Mostly Cloudy
4:55 PM -2.2 °F -22.2 °F -9.4 °F 71% 30.28 in 10.0 mi NW 15.0 mph 24.2 mph N/A   Mostly Cloudy
5:15 PM -2.2 °F -20.7 °F -9.4 °F 71% 30.29 in 10.0 mi NW 12.7 mph - N/A   Scattered Clouds
5:35 PM -4.0 °F -23.0 °F -11.2 °F 71% 30.30 in 10.0 mi NW 12.7 mph 19.6 mph N/A   Mostly Cloudy
5:55 PM -4.0 °F -23.0 °F -11.2 °F 71% 30.31 in 10.0 mi NW 12.7 mph - N/A   Mostly Cloudy
6:15 PM -4.0 °F -21.2 °F -11.2 °F 71% 30.31 in 10.0 mi NW 10.4 mph - N/A   Scattered Clouds
6:35 PM -4.0 °F -20.2 °F - N/A% 30.32 in 10.0 mi NW 9.2 mph - N/A   Scattered Clouds
6:55 PM -4.0 °F -23.0 °F - N/A% 30.32 in 10.0 mi NW 12.7 mph 19.6 mph N/A   Scattered Clouds
7:15 PM -4.0 °F -22.1 °F -13.0 °F 65% 30.32 in 10.0 mi NW 11.5 mph - N/A   Partly Cloudy
7:35 PM -4.0 °F -22.1 °F -13.0 °F 65% 30.33 in 10.0 mi NW 11.5 mph - N/A   Partly Cloudy
7:55 PM -5.8 °F -23.4 °F -13.0 °F 71% 30.33 in 10.0 mi NW 10.4 mph - N/A   Partly Cloudy
8:15 PM -5.8 °F -22.4 °F -13.0 °F 71% 30.33 in 10.0 mi NW 9.2 mph - N/A   Clear
8:35 PM -7.6 °F -22.1 °F -14.8 °F 71% 30.33 in 10.0 mi NW 6.9 mph - N/A   Clear
8:55 PM -9.4 °F -24.3 °F -14.8 °F 77% 30.33 in 10.0 mi WNW 6.9 mph - N/A   Clear
9:15 PM -7.6 °F -23.4 °F -14.8 °F 71% 30.34 in 10.0 mi WNW 8.1 mph - N/A   Clear
9:35 PM -7.6 °F -22.1 °F -14.8 °F 71% 30.34 in 10.0 mi WNW 6.9 mph - N/A   Clear
9:55 PM -7.6 °F -20.6 °F -13.0 °F 77% 30.33 in 10.0 mi WNW 5.8 mph - N/A   Clear
10:15 PM -7.6 °F -18.8 °F -14.8 °F 71% 30.34 in 10.0 mi WNW 4.6 mph - N/A   Partly Cloudy
10:35 PM -9.4 °F -22.7 °F -14.8 °F 77% 30.33 in 10.0 mi WNW 5.8 mph - N/A   Partly Cloudy
10:55 PM -9.4 °F -22.7 °F -16.6 °F 71% 30.34 in - West 5.8 mph - N/A   Partly Cloudy
11:15 PM -9.4 °F -25.6 °F -16.6 °F 71% 30.34 in - West 8.1 mph - N/A   Partly Cloudy
11:35 PM -9.4 °F -22.7 °F -16.6 °F 71% 30.32 in - West 5.8 mph - N/A   Scattered Clouds